Location: Twillingate Astronomical Observatory
(49.6173°N, 54.7580°W)
Time: 05:15:14
(UTC-02:-30)

Amateur Radio Satellites - All Passes

Search period start: 31 May 2016 04:45
Search period end: 01 June 2016 04:45
Location: Twillingate Astronomical Observatory, 49.6173°N, 54.7580°W

Satellite Date Start Highest point End Downlink Frequencies (MHz)
Time Altitude Azimuth
HORYU 2 31 May 04:47:50 04:50:00 13° 88° (E) 04:52:08 437.375
AO-7 31 May 04:55:31 05:03:49 60° 104° (ESE) 05:12:04 29.400- 29.500
AO-85 31 May 05:03:30 05:07:47 24° 113° (ESE) 05:11:58 145.980
KKS-1 31 May 05:11:18 05:14:27 19° 269° (W) 05:17:36 437.445
YUBILEINY 31 May 05:18:39 05:25:40 28° 281° (W) 05:32:43 435.215
STRAND 1 31 May 05:28:45 05:30:37 12° 50° (NE) 05:32:29 437.568
JAS-2 31 May 05:31:44 05:32:09 10° 326° (NW) 05:32:36 435.910
STARS 31 May 05:36:40 05:39:47 19° 269° (W) 05:42:55 437.465
CUBESAT XI-V 31 May 05:50:45 05:55:26 71° 258° (WSW) 06:00:11 437.345
Cosmos 2504 31 May 05:51:05 05:59:07 51° 271° (W) 06:07:31 435.465 / 435.565
MOZHAYETS 4 31 May 05:57:07 05:57:48 10° 275° (W) 05:58:29
ITAMSAT 1 31 May 06:10:42 06:13:41 16° 307° (NW) 06:16:41 435.822/435.867
NOAA 18 31 May 06:17:11 06:21:02 19° 90° (E) 06:24:52 137.9125
Cosmos 2491 31 May 06:21:00 06:28:37 31° 299° (WNW) 06:36:16 435.465 / 435.565
HORYU 2 31 May 06:22:40 06:27:08 80° 286° (WNW) 06:31:34 437.375
SO-50 31 May 06:23:27 06:27:06 21° 25° (NNE) 06:30:41 436.795
CUTE-I 31 May 06:32:43 06:36:51 22° 91° (E) 06:40:56 437.470
BRITE-PL 31 May 06:34:24 06:38:36 25° 90° (E) 06:42:30 437.365/2234.400
GOMX 1 31 May 06:40:42 06:42:54 13° 85° (E) 06:45:01 467.674
AO-85 31 May 06:42:26 06:47:53 74° 312° (NW) 06:53:09 145.980
AO-7 31 May 06:48:42 06:56:20 42° 305° (NW) 07:03:59 29.400- 29.500
AIST 1 31 May 06:56:20 06:58:57 15° 63° (ENE) 07:01:33
STRAND 1 31 May 07:03:48 07:08:49 62° 70° (ENE) 07:13:53 437.568
LilacSat-2 31 May 07:06:01 07:09:32 35° 97° (E) 07:13:02 437.200
NOAA 15 31 May 07:08:14 07:13:29 57° 101° (E) 07:18:40 137.62
DOVE 4 31 May 07:10:40 07:12:08 11° 85° (E) 07:13:35 437.250
GONETS M04 31 May 07:15:45 07:22:33 24° 56° (NE) 07:29:17
PRISM 31 May 07:23:44 07:26:42 19° 61° (ENE) 07:29:41 437.425
Cubesat XI-IV 31 May 07:26:55 07:32:14 59° 101° (E) 07:37:31 437.490
Cosmos 2504 31 May 07:48:35 07:50:31 11° 292° (WNW) 07:52:27 435.465 / 435.565
NOAA 18 31 May 07:56:48 08:02:17 75° 289° (WNW) 08:07:46 137.9125
HO-68 31 May 08:00:00 08:05:03 20° 88° (E) 08:10:03 435.675
HORYU 2 31 May 08:01:08 08:02:58 12° 306° (NW) 08:04:48 437.375
SO-50 31 May 08:03:39 08:08:26 70° 47° (NE) 08:13:02 436.795
CUTE 1.7 + AOD 2 31 May 08:07:39 08:09:50 14° 88° (E) 08:12:00 437.475
CUTE-I 31 May 08:12:01 08:17:20 64° 290° (WNW) 08:22:38 437.470
BRITE-PL 31 May 08:12:27 08:17:22 47° 292° (WNW) 08:21:53 437.365/2234.400
GOMX 1 31 May 08:17:02 08:21:45 79° 284° (WNW) 08:26:06 467.674
O/OREOS (USA 219) 31 May 08:17:38 08:19:55 14° 98° (E) 08:22:11 437.305
Cosmos 2499 31 May 08:20:34 08:28:17 35° 64° (ENE) 08:36:12 435.465 / 435.565
AO-85 31 May 08:24:56 08:29:12 24° 333° (NNW) 08:33:20 145.980
AIST 1 31 May 08:32:44 08:37:05 68° 263° (W) 08:41:21
LilacSat-2 31 May 08:40:42 08:43:41 22° 295° (WNW) 08:46:41 437.200
AO-7 31 May 08:42:56 08:46:56 15° 330° (NNW) 08:50:58 29.400- 29.500
STRAND 1 31 May 08:44:36 08:48:26 21° 269° (W) 08:52:18 437.568
DOVE 4 31 May 08:46:10 08:50:35 83° 282° (WNW) 08:54:46 437.250
CINEMA 3 31 May 08:48:04 08:51:51 33° 96° (E) 08:55:37 145.822/145.860
NOAA 15 31 May 08:48:37 08:52:56 26° 300° (WNW) 08:57:15 137.62
AUBIESAT-1 31 May 08:52:25 08:54:46 18° 99° (E) 08:57:06 437.475
PRISM 31 May 08:57:35 09:01:40 54° 259° (W) 09:05:48 437.425
M-CUBED/EXP-1 PRIME 31 May 09:02:16 09:05:08 27° 103° (ESE) 09:08:00 437.505
Cubesat XI-IV 31 May 09:07:36 09:11:58 26° 301° (WNW) 09:16:19 437.490
SEEDS 31 May 09:10:11 09:14:13 40° 98° (E) 09:18:14 437.485
CUBEBUG 2 31 May 09:11:19 09:14:27 20° 92° (E) 09:17:36 437.445
GONETS M04 31 May 09:12:01 09:20:47 87° 80° (E) 09:29:30
CANX-2 31 May 09:15:23 09:19:41 69° 101° (E) 09:23:59 2200.000
PCSat 31 May 09:20:22 09:25:26 42° 115° (ESE) 09:30:33 145.827
FUNcube-1 31 May 09:25:09 09:27:13 13° 88° (E) 09:29:16 145.935
UWE-3 31 May 09:31:18 09:34:40 23° 93° (E) 09:38:04 435.000/436.395/437.385
UNISAT 6 31 May 09:33:57 09:37:27 25° 64° (ENE) 09:40:56 437.425
NOAA 18 31 May 09:38:59 09:42:06 16° 309° (NW) 09:45:14 137.9125
TIGRISAT 31 May 09:40:00 09:43:35 26° 64° (ENE) 09:47:09 435.000
CUTE 1.7 + AOD 2 31 May 09:41:54 09:46:12 74° 285° (WNW) 09:50:28 437.475
SO-50 31 May 09:45:02 09:48:25 20° 247° (WSW) 09:51:44 436.795
DELFI C3 31 May 09:46:09 09:47:46 12° 87° (E) 09:49:22 145.870
HO-68 31 May 09:46:31 09:53:45 88° 111° (ESE) 10:00:58 435.675
AAUSAT CUBESAT 2 31 May 09:47:21 09:51:31 57° 100° (E) 09:55:39 437.432
COMPASS 1 31 May 09:48:47 09:53:02 73° 102° (ESE) 09:57:15 437.405
CUTE-I 31 May 09:54:04 09:56:24 13° 310° (NW) 09:58:45 437.470
O/OREOS (USA 219) 31 May 09:54:07 09:58:40 81° 298° (WNW) 10:03:15 437.305
GOMX 1 31 May 09:57:01 09:58:58 13° 307° (NW) 10:00:54 467.674
Oscar 11 31 May 10:01:56 10:05:57 35° 97° (E) 10:09:57 145.826/435.025
QB50P1 31 May 10:07:26 10:09:12 12° 56° (ENE) 10:10:59 145.935-145.965
POPSAT HIP 1 31 May 10:07:29 10:09:12 12° 56° (ENE) 10:10:56 437.405
AO-85 31 May 10:08:42 10:11:29 14° 357° (N) 10:14:11 145.980
QB50P2 31 May 10:10:42 10:12:54 14° 57° (ENE) 10:15:05 145.880/145.840
POLYITAN 1 31 May 10:13:09 10:15:22 14° 58° (ENE) 10:17:36 437.675
Cosmos 2499 31 May 10:13:31 10:22:02 69° 266° (W) 10:30:50 435.465 / 435.565
ANTELSAT 31 May 10:14:08 10:18:22 57° 72° (ENE) 10:22:34 437.575/2403.000
NANOSAT C BR1 31 May 10:22:32 10:25:08 16° 59° (ENE) 10:27:46 145.865
ZACube-1 31 May 10:23:55 10:28:02 52° 100° (E) 10:32:13 437.345
CINEMA 3 31 May 10:25:24 10:28:57 27° 295° (WNW) 10:32:28 145.822/145.860
DOVE 4 31 May 10:25:54 10:27:30 12° 306° (NW) 10:29:06 437.250
AUBIESAT-1 31 May 10:26:24 10:29:26 34° 297° (WNW) 10:32:28 437.475
JAS-2 31 May 10:32:07 10:36:15 16° 42° (NE) 10:40:24 435.910
M-CUBED/EXP-1 PRIME 31 May 10:37:03 10:39:40 22° 301° (WNW) 10:42:16 437.505
BEESAT 2 31 May 10:37:34 10:39:29 13° 111° (ESE) 10:41:24 435.950
CUSAT 1 31 May 10:42:32 10:48:24 29° 82° (E) 10:54:53 437.405
SEEDS 31 May 10:46:17 10:49:45 25° 296° (WNW) 10:53:13 437.485
CUBEBUG 2 31 May 10:47:20 10:51:19 45° 290° (WNW) 10:55:22 437.445
CANX-2 31 May 10:52:24 10:55:05 16° 300° (WNW) 10:57:44 2200.000
DUCHIFAT 1 31 May 10:57:47 11:01:30 31° 66° (ENE) 11:05:12 145.980
FUNcube-1 31 May 10:59:46 11:03:57 73° 287° (WNW) 11:08:13 145.935
BUGSAT 1 31 May 11:00:01 11:02:50 18° 61° (ENE) 11:05:38 437.445
BEESAT 3 31 May 11:02:16 11:05:53 36° 120° (ESE) 11:09:32 437.485
PCSat 31 May 11:03:44 11:08:53 42° 316° (NW) 11:14:04 145.827
UWE-3 31 May 11:07:22 11:11:18 40° 291° (WNW) 11:15:17 435.000/436.395/437.385
UNISAT 6 31 May 11:09:56 11:14:01 40° 262° (W) 11:18:04 437.425
GONETS M04 31 May 11:10:03 11:16:30 24° 283° (WNW) 11:22:57
DANDE 31 May 11:14:12 11:19:09 23° 78° (ENE) 11:24:52 436.750
TIGRISAT 31 May 11:16:10 11:20:10 37° 262° (W) 11:24:09 435.000
DELFI C3 31 May 11:19:06 11:23:09 75° 286° (WNW) 11:27:11 145.870
CUTE 1.7 + AOD 2 31 May 11:20:11 11:21:16 11° 305° (NW) 11:22:23 437.475
AAUSAT CUBESAT 2 31 May 11:23:45 11:26:38 18° 299° (WNW) 11:29:31 437.432
COMPASS 1 31 May 11:25:38 11:28:05 15° 301° (WNW) 11:30:32 437.405
HUMSAT D 31 May 11:32:38 11:36:49 71° 102° (ESE) 11:41:01 437.325/437.525
HO-68 31 May 11:35:07 11:40:42 25° 309° (NW) 11:46:16 435.675
O/OREOS (USA 219) 31 May 11:36:06 11:38:50 16° 318° (NW) 11:41:35 437.305
Oscar 11 31 May 11:38:15 11:42:00 29° 295° (WNW) 11:45:43 145.826/435.025
QB50P1 31 May 11:40:06 11:44:21 87° 67° (ENE) 11:48:35 145.935-145.965
POPSAT HIP 1 31 May 11:40:07 11:44:21 86° 76° (ENE) 11:48:36 437.405
QB50P2 31 May 11:43:54 11:48:08 82° 257° (WSW) 11:52:24 145.880/145.840
Oscar 19 31 May 11:46:18 11:48:49 14° 52° (NE) 11:51:20 437.125/150
POLYITAN 1 31 May 11:46:24 11:50:38 80° 256° (WSW) 11:54:53 437.675
AO-85 31 May 11:50:13 11:53:51 20° 22° (NNE) 11:57:17 145.980
ANTELSAT 31 May 11:52:37 11:55:27 17° 270° (W) 11:58:17 437.575/2403.000
NANOSAT C BR1 31 May 11:56:14 12:00:25 67° 258° (WSW) 12:04:38 145.865
ZACube-1 31 May 12:00:59 12:04:02 20° 298° (WNW) 12:07:06 437.345
DX 1 31 May 12:04:25 12:07:27 18° 91° (E) 12:10:28 434.975-435.025
CUBEBUG 1 31 May 12:05:44 12:09:15 23° 93° (E) 12:12:45 437.445
Cosmos 2499 31 May 12:08:40 12:13:38 17° 288° (WNW) 12:18:40 435.465 / 435.565
JAS-2 31 May 12:12:14 12:19:32 50° 64° (ENE) 12:27:02 435.910
BEESAT 2 31 May 12:12:45 12:16:44 83° 310° (NW) 12:20:46 435.950
SPROUT 31 May 12:15:09 12:16:53 12° 87° (E) 12:18:36 437.525
ESTCUBE 1 31 May 12:18:33 12:22:55 43° 98° (E) 12:27:15 437.505/2401.250
AO-7 31 May 12:22:10 12:25:03 12° 25° (NNE) 12:27:56 29.400- 29.500
CUSAT 1 31 May 12:22:42 12:29:45 75° 284° (WNW) 12:37:52 437.405
VELOX 1 31 May 12:23:22 12:27:22 32° 96° (E) 12:31:21 145.980
50 SAT 31 May 12:29:40 12:33:14 41° 99° (E) 12:36:46 437.505
Cosmos 2491 31 May 12:32:08 12:35:52 13° 42° (NE) 12:39:34 435.465 / 435.565
DUCHIFAT 1 31 May 12:33:27 12:37:11 30° 264° (W) 12:40:56 145.980
BUGSAT 1 31 May 12:33:43 12:37:50 58° 259° (W) 12:41:57 437.445
FUNcube-1 31 May 12:38:46 12:39:28 10° 305° (NW) 12:40:11 145.935
BEESAT 3 31 May 12:39:59 12:43:37 33° 320° (NW) 12:47:15 437.485
Gurwin Techsat 1B 31 May 12:40:49 12:44:18 18° 55° (NE) 12:47:47 435.225
UKube-1 31 May 12:45:12 12:49:14 36° 98° (E) 12:53:12 .
PCSat 31 May 12:50:28 12:53:46 16° 340° (NNW) 12:57:04 145.827
DANDE 31 May 12:54:35 13:00:53 82° 283° (WNW) 13:08:52 436.750
DELFI C3 31 May 12:56:51 12:57:17 10° 304° (NW) 12:57:43 145.870
AISAT 31 May 12:59:47 13:04:14 76° 103° (ESE) 13:08:38 437.250
HUMSAT D 31 May 13:09:31 13:11:58 15° 301° (WNW) 13:14:25 437.325/437.525
AIST 2 31 May 13:19:03 13:22:51 37° 120° (ESE) 13:26:41 435.215
POPSAT HIP 1 31 May 13:19:28 13:20:45 11° 273° (W) 13:22:02 437.405
QB50P1 31 May 13:19:32 13:20:45 11° 273° (W) 13:21:57 145.935-145.965
Oscar 19 31 May 13:22:05 13:27:15 70° 72° (ENE) 13:32:27 437.125/150
AO-85 31 May 13:30:32 13:35:22 60° 46° (NE) 13:39:44 145.980
DX 1 31 May 13:39:43 13:43:59 56° 290° (WNW) 13:48:15 434.975-435.025
CUBEBUG 1 31 May 13:41:35 13:45:45 43° 291° (WNW) 13:49:51 437.445
SPROUT 31 May 13:49:08 13:53:25 81° 286° (WNW) 13:57:40 437.525
BEESAT 2 31 May 13:52:20 13:55:12 18° 331° (NNW) 13:58:03 435.950
ESTCUBE 1 31 May 13:55:46 13:59:33 26° 297° (WNW) 14:03:18 437.505/2401.250
JAS-2 31 May 13:57:18 14:04:33 46° 264° (W) 14:12:07 435.910
TISAT 1 31 May 13:57:53 14:01:47 37° 97° (E) 14:05:40 437.305
VELOX 1 31 May 13:59:53 14:03:50 32° 295° (WNW) 14:07:44 145.980
50 SAT 31 May 14:03:59 14:06:43 20° 297° (WNW) 14:09:27 437.505
CUSAT 1 31 May 14:07:50 14:13:23 22° 308° (NW) 14:19:20 437.405
AO-7 31 May 14:08:12 14:15:20 34° 50° (NE) 14:22:30 29.400- 29.500
ITAMSAT 1 31 May 14:13:16 14:18:03 39° 65° (ENE) 14:22:52 435.822/435.867
Gurwin Techsat 1B 31 May 14:18:15 14:23:35 88° 254° (WSW) 14:28:56 435.225
BEESAT 3 31 May 14:20:58 14:22:27 12° 343° (NNW) 14:23:55 437.485
UKube-1 31 May 14:21:28 14:25:11 28° 296° (WNW) 14:28:52 .
Cosmos 2491 31 May 14:27:07 14:35:33 47° 69° (ENE) 14:43:52 435.465 / 435.565
YUBILEINY 31 May 14:34:52 14:40:10 18° 73° (ENE) 14:45:28 435.215
PCSat 31 May 14:37:10 14:39:33 13° 7° (N) 14:41:55 145.827
AISAT 31 May 14:37:31 14:40:10 16° 303° (WNW) 14:42:49 437.250
DANDE 31 May 14:40:02 14:45:15 22° 308° (NW) 14:51:13 436.750
RS-15 31 May 14:54:58 14:56:33 10° 88° (E) 14:58:09 29.354- 29.394
AIST 2 31 May 14:57:33 15:01:22 35° 320° (NW) 15:05:13 435.215
Oscar 19 31 May 15:03:28 15:07:07 19° 270° (W) 15:10:46 437.125/150
SWISSCUBE 31 May 15:03:42 15:08:15 40° 98° (E) 15:12:45 437.505
AO-85 31 May 15:11:46 15:15:24 23° 247° (WSW) 15:18:47 145.980
ITUPSAT 1 31 May 15:12:10 15:16:46 43° 98° (E) 15:21:20 437.325
SPROUT 31 May 15:27:10 15:28:40 12° 305° (NW) 15:30:10 437.525
BEESAT 31 May 15:32:47 15:37:35 66° 102° (ESE) 15:42:21 436.000
TISAT 1 31 May 15:33:52 15:37:19 25° 296° (WNW) 15:40:44 437.305
HORYU 2 31 May 15:49:30 15:52:55 22° 61° (ENE) 15:56:21 437.375
ITAMSAT 1 31 May 15:52:54 15:57:35 34° 264° (W) 16:02:19 435.822/435.867
AO-7 31 May 15:59:12 16:07:29 76° 252° (WSW) 16:15:53 29.400- 29.500
Gurwin Techsat 1B 31 May 16:01:29 16:04:19 14° 274° (W) 16:07:10 435.225
MOZHAYETS 4 31 May 16:06:39 16:09:54 19° 90° (E) 16:13:09
NOAA 18 31 May 16:11:25 16:13:08 11° 47° (NE) 16:14:51 137.9125
BRITE-PL 31 May 16:14:55 16:16:09 11° 49° (NE) 16:17:22 437.365/2234.400
PCSat 31 May 16:20:34 16:24:59 24° 32° (NNE) 16:29:23 145.827
CUTE-I 31 May 16:23:27 16:24:47 11° 48° (NE) 16:26:08 437.470
Cosmos 2491 31 May 16:24:12 16:32:28 48° 272° (W) 16:40:38 435.465 / 435.565
YUBILEINY 31 May 16:26:47 16:35:25 75° 95° (E) 16:44:07 435.215
AIST 2 31 May 16:39:11 16:41:02 13° 343° (NNW) 16:42:54 435.215
SWISSCUBE 31 May 16:41:45 16:45:56 30° 297° (WNW) 16:50:07 437.505
Cosmos 2504 31 May 16:42:55 16:49:00 29° 81° (E) 16:55:26 435.465 / 435.565
O/OREOS (USA 219) 31 May 16:42:58 16:44:39 12° 37° (NE) 16:46:20 437.305
ITUPSAT 1 31 May 16:50:20 16:54:28 29° 297° (WNW) 16:58:34 437.325
NOAA 15 31 May 16:54:26 16:58:40 25° 59° (ENE) 17:02:54 137.62
RS-15 31 May 16:54:51 17:05:32 49° 112° (ESE) 17:16:47 29.354- 29.394
KKS-1 31 May 16:56:02 17:00:28 62° 102° (ESE) 17:04:50 437.445
BEESAT 31 May 17:11:28 17:14:56 20° 301° (WNW) 17:18:22 436.000
BEESAT 2 31 May 17:12:28 17:14:14 12° 19° (NNE) 17:15:59 435.950
Cubesat XI-IV 31 May 17:14:50 17:19:08 26° 59° (ENE) 17:23:26 437.490
STARS 31 May 17:19:56 17:24:16 57° 101° (ESE) 17:28:34 437.465
HORYU 2 31 May 17:24:54 17:29:11 49° 260° (W) 17:33:31 437.375
BEESAT 3 31 May 17:38:12 17:41:09 19° 31° (NNE) 17:44:05 437.485
MOZHAYETS 4 31 May 17:42:54 17:47:28 61° 288° (WNW) 17:52:03
CUBESAT XI-V 31 May 17:43:29 17:47:10 22° 91° (E) 17:50:48 437.345
NOAA 18 31 May 17:47:22 17:52:40 54° 67° (ENE) 17:57:58 137.9125
BRITE-PL 31 May 17:47:57 17:53:25 49° 68° (ENE) 17:58:47 437.365/2234.400
GOMX 1 31 May 17:51:20 17:55:53 29° 63° (ENE) 18:00:17 467.674
LilacSat-2 31 May 17:52:09 17:55:34 33° 68° (ENE) 17:59:00 437.200
AO-7 31 May 17:56:21 18:01:42 18° 274° (W) 18:07:06 29.400- 29.500
CUTE-I 31 May 17:58:34 18:03:43 53° 68° (ENE) 18:08:53 437.470
PCSat 31 May 18:03:40 18:09:09 87° 56° (ENE) 18:14:35 145.827
DOVE 4 31 May 18:18:39 18:22:41 25° 63° (ENE) 18:26:35 437.250
O/OREOS (USA 219) 31 May 18:20:40 18:25:06 56° 59° (ENE) 18:29:30 437.305
AIST 2 31 May 18:20:40 18:21:20 10° 7° (N) 18:22:01 435.215
M-CUBED/EXP-1 PRIME 31 May 18:20:41 18:22:10 12° 53° (NE) 18:23:36 437.505
YUBILEINY 31 May 18:25:43 18:33:09 31° 299° (WNW) 18:40:39 435.215
NOAA 15 31 May 18:32:48 18:38:04 62° 258° (WSW) 18:43:22 137.62
KKS-1 31 May 18:33:31 18:36:36 19° 301° (WNW) 18:39:41 437.445
HO-68 31 May 18:33:39 18:39:20 27° 52° (NE) 18:45:03 435.675
Cosmos 2504 31 May 18:34:26 18:41:44 66° 284° (WNW) 18:49:35 435.465 / 435.565
CANX-2 31 May 18:39:32 18:41:07 12° 56° (NE) 18:42:43 2200.000
BEESAT 2 31 May 18:49:24 18:53:10 37° 41° (NE) 18:56:54 435.950
Cubesat XI-IV 31 May 18:53:37 18:58:51 59° 259° (WSW) 19:04:08 437.490
STARS 31 May 18:57:08 19:00:16 19° 300° (WNW) 19:03:22 437.465
CUTE 1.7 + AOD 2 31 May 19:04:27 19:07:17 18° 60° (ENE) 19:10:08 437.475
RS-15 31 May 19:06:09 19:17:40 67° 319° (NW) 19:29:51 29.354- 29.394
STRAND 1 31 May 19:11:08 19:14:04 15° 87° (E) 19:17:00 437.568
COMPASS 1 31 May 19:11:10 19:12:42 12° 56° (ENE) 19:14:14 437.405
BEESAT 3 31 May 19:15:23 19:19:22 88° 232° (SW) 19:23:19 437.485
CUBESAT XI-V 31 May 19:20:15 19:24:51 52° 290° (WNW) 19:29:24 437.345
MOZHAYETS 4 31 May 19:23:09 19:23:43 10° 308° (NW) 19:24:18
LilacSat-2 31 May 19:26:54 19:29:58 23° 266° (W) 19:33:02 437.200
BRITE-PL 31 May 19:26:59 19:32:02 32° 267° (W) 19:37:03 437.365/2234.400
GOMX 1 31 May 19:28:26 19:33:44 52° 261° (W) 19:38:51 467.674
NOAA 18 31 May 19:29:04 19:33:37 27° 266° (W) 19:38:13 137.9125
CUTE-I 31 May 19:39:40 19:44:04 26° 267° (W) 19:48:30 437.470
AUBIESAT-1 31 May 19:41:44 19:45:34 58° 67° (ENE) 19:49:09 437.475
PCSat 31 May 19:48:21 19:51:50 18° 254° (WSW) 19:55:18 145.827
M-CUBED/EXP-1 PRIME 31 May 19:52:19 19:56:18 88° 256° (WSW) 19:59:59 437.505
CINEMA 3 31 May 19:53:24 19:57:52 54° 71° (ENE) 20:02:10 145.822/145.860
DOVE 4 31 May 19:55:06 20:00:07 55° 260° (W) 20:04:55 437.250
AIST 2 31 May 19:58:07 20:01:22 21° 31° (NNE) 20:04:36 435.215
O/OREOS (USA 219) 31 May 20:00:53 20:04:06 20° 258° (WSW) 20:07:19 437.305
SEEDS 31 May 20:05:52 20:09:53 48° 70° (ENE) 20:13:57 437.485
CANX-2 31 May 20:12:05 20:16:18 84° 72° (ENE) 20:20:34 2200.000
CUBEBUG 2 31 May 20:13:28 20:17:10 29° 66° (ENE) 20:20:49 437.445
ISS 31 May 20:18:24 20:20:40 18° 140° (SE) 20:22:56 145.825
HO-68 31 May 20:19:12 20:26:22 83° 254° (WSW) 20:33:35 435.675
FUNcube-1 31 May 20:24:45 20:27:38 19° 61° (ENE) 20:30:31 145.935
GONETS M04 31 May 20:24:57 20:31:03 22° 75° (ENE) 20:37:07
BEESAT 2 31 May 20:27:23 20:30:58 32° 241° (WSW) 20:34:30 435.950
UWE-3 31 May 20:32:25 20:36:10 31° 67° (ENE) 20:39:52 435.000/436.395/437.385
Cosmos 2504 31 May 20:32:31 20:37:03 17° 310° (NW) 20:41:46 435.465 / 435.565
PRISM 31 May 20:35:53 20:38:23 15° 90° (E) 20:40:53 437.425
DELFI C3 31 May 20:36:24 20:38:32 14° 59° (ENE) 20:40:40 145.870
CUTE 1.7 + AOD 2 31 May 20:38:33 20:42:43 60° 259° (W) 20:46:56 437.475
AAUSAT CUBESAT 2 31 May 20:41:28 20:45:34 66° 74° (ENE) 20:49:44 437.432
COMPASS 1 31 May 20:43:25 20:47:34 85° 78° (ENE) 20:51:48 437.405
STRAND 1 31 May 20:48:46 20:53:57 86° 287° (WNW) 20:59:07 437.568
BEESAT 3 31 May 20:55:05 20:56:25 11° 250° (WSW) 20:57:45 437.485
HUMSAT D 31 May 20:55:41 20:57:02 11° 56° (NE) 20:58:22 437.325/437.525
Oscar 11 31 May 21:00:37 21:04:44 46° 70° (ENE) 21:08:53 145.826/435.025
Cosmos 2499 31 May 21:05:19 21:10:29 20° 75° (ENE) 21:15:53 435.465 / 435.565
AIST 1 31 May 21:06:04 21:10:22 56° 95° (E) 21:14:42
CUSAT 1 31 May 21:12:05 21:18:42 30° 58° (ENE) 21:24:24 437.405
AUBIESAT-1 31 May 21:18:13 21:20:20 14° 262° (W) 21:22:25 437.475
RS-15 31 May 21:21:47 21:32:47 40° 351° (N) 21:44:11 29.354- 29.394
ZACube-1 31 May 21:23:47 21:27:56 70° 74° (ENE) 21:32:05 437.345
CINEMA 3 31 May 21:31:57 21:35:18 20° 268° (W) 21:38:34 145.822/145.860
AIST 2 31 May 21:36:12 21:40:22 83° 232° (SW) 21:44:31 435.215
SEEDS 31 May 21:42:48 21:45:52 19° 269° (W) 21:48:57 437.485
DANDE 31 May 21:46:29 21:53:50 32° 59° (ENE) 22:00:37 436.750
ESTCUBE 1 31 May 21:49:22 21:50:31 11° 53° (NE) 21:51:40 437.505/2401.250
CUBEBUG 2 31 May 21:49:54 21:53:46 32° 264° (W) 21:57:35 437.445
CANX-2 31 May 21:51:19 21:52:46 12° 274° (W) 21:54:14 2200.000
ISS 31 May 21:53:26 21:56:42 74° 158° (SSE) 21:59:59 145.825
FUNcube-1 31 May 21:59:28 22:03:33 54° 260° (W) 22:07:38 145.935
DELFI C3 31 May 22:08:54 22:12:53 72° 258° (WSW) 22:16:54 145.870
UWE-3 31 May 22:08:56 22:12:39 29° 265° (W) 22:16:20 435.000/436.395/437.385
PRISM 31 May 22:09:58 22:14:08 62° 288° (WNW) 22:18:14 437.425
HO-68 31 May 22:10:30 22:15:11 18° 274° (W) 22:19:54 435.675
GONETS M04 31 May 22:17:47 22:26:35 85° 98° (E) 22:35:23
AAUSAT CUBESAT 2 31 May 22:19:17 22:21:32 14° 272° (W) 22:23:48 437.432
COMPASS 1 31 May 22:22:29 22:23:46 11° 274° (W) 22:25:02 437.405
AISAT 31 May 22:26:43 22:29:34 17° 58° (ENE) 22:32:26 437.250
HUMSAT D 31 May 22:27:55 22:31:59 85° 72° (ENE) 22:36:06 437.325/437.525
STRAND 1 31 May 22:29:18 22:32:25 16° 306° (NW) 22:35:31 437.568
Oscar 11 31 May 22:37:49 22:41:07 21° 268° (W) 22:44:25 145.826/435.025
PHONESAT 2.4 31 May 22:37:54 22:39:52 16° 176° (S) 22:41:51 2401.200-2431.200
AIST 1 31 May 22:45:15 22:48:21 19° 295° (WNW) 22:51:28
CUSAT 1 31 May 22:53:59 23:01:41 73° 263° (W) 23:07:56 437.405
Cosmos 2499 31 May 22:54:53 23:02:20 89° 97° (E) 23:10:27 435.465 / 435.565
UNISAT 6 31 May 22:56:56 23:00:42 28° 95° (E) 23:04:30 437.425
ZACube-1 31 May 23:02:39 23:04:43 13° 272° (W) 23:06:49 437.345
TIGRISAT 31 May 23:02:49 23:06:40 30° 96° (E) 23:10:32 435.000
DX 1 31 May 23:03:43 23:07:28 28° 64° (ENE) 23:11:13 434.975-435.025
CUBEBUG 1 31 May 23:05:31 23:09:30 34° 66° (ENE) 23:13:31 437.445
50 SAT 31 May 23:11:57 23:15:19 36° 69° (ENE) 23:18:43 437.505
SPROUT 31 May 23:12:29 23:15:22 18° 60° (ENE) 23:18:16 437.525
AIST 2 31 May 23:16:46 23:18:09 11° 251° (WSW) 23:19:33 435.215
ESTCUBE 1 31 May 23:21:59 23:26:28 66° 72° (ENE) 23:31:00 437.505/2401.250
QB50P1 31 May 23:23:11 23:23:56 10° 86° (E) 23:24:41 145.935-145.965
POPSAT HIP 1 31 May 23:23:25 23:23:59 10° 86° (E) 23:24:33 437.405
VELOX 1 31 May 23:24:30 23:28:49 50° 69° (ENE) 23:33:09 145.980
QB50P2 31 May 23:26:19 23:28:01 12° 87° (E) 23:29:43 145.880/145.840
POLYITAN 1 31 May 23:28:45 23:30:31 12° 88° (E) 23:32:17 437.675
DANDE 31 May 23:29:09 23:37:37 78° 262° (W) 23:45:04 436.750
ISS 31 May 23:30:01 23:33:16 58° 358° (N) 23:36:30 145.825
RS-15 31 May 23:37:11 23:48:49 47° 24° (NNE) 00:00:38 29.354- 29.394
NANOSAT C BR1 31 May 23:37:32 23:39:52 14° 89° (E) 23:42:10 145.865
ANTELSAT 31 May 23:37:39 23:41:59 70° 103° (ESE) 23:46:22 437.575/2403.000
UKube-1 31 May 23:43:35 23:47:49 54° 70° (ENE) 23:52:03 .
AISAT 01 Jun 00:01:05 00:05:33 72° 257° (WSW) 00:10:03 437.250
SO-50 01 Jun 00:01:34 00:06:17 48° 122° (ESE) 00:11:00 436.795
HUMSAT D 01 Jun 00:07:20 00:08:14 11° 274° (W) 00:09:09 437.325/437.525
BUGSAT 1 01 Jun 00:12:26 00:14:41 14° 89° (E) 00:16:55 437.445
DUCHIFAT 1 01 Jun 00:12:50 00:16:32 29° 96° (E) 00:20:12 145.980
PHONESAT 2.4 01 Jun 00:14:22 00:15:53 13° 193° (SSW) 00:17:24 2401.200-2431.200
GONETS M04 01 Jun 00:17:28 00:24:37 27° 302° (WNW) 00:31:46
UNISAT 6 01 Jun 00:33:33 00:37:29 35° 293° (WNW) 00:41:27 437.425
YUBILEINY 01 Jun 00:36:28 00:40:16 13° 42° (NE) 00:44:04 435.215
CUSAT 1 01 Jun 00:38:02 00:42:13 16° 286° (WNW) 00:46:03 437.405
DX 1 01 Jun 00:39:29 00:43:34 37° 263° (W) 00:47:39 434.975-435.025
TIGRISAT 01 Jun 00:39:32 00:43:22 32° 293° (WNW) 00:47:15 435.000
SWISSCUBE 01 Jun 00:39:50 00:41:57 13° 53° (NE) 00:44:05 437.505
CUBEBUG 1 01 Jun 00:41:53 00:45:49 31° 265° (W) 00:49:46 437.445
50 SAT 01 Jun 00:46:26 00:49:10 20° 267° (W) 00:51:57 437.505
SPROUT 01 Jun 00:46:40 00:50:55 61° 259° (W) 00:55:11 437.525
ITUPSAT 1 01 Jun 00:48:17 00:50:40 14° 54° (NE) 00:53:03 437.325
Cosmos 2499 01 Jun 00:50:52 00:56:46 24° 304° (NW) 01:03:00 435.465 / 435.565
TISAT 1 01 Jun 00:53:24 00:57:29 50° 70° (ENE) 01:01:34 437.305
QB50P1 01 Jun 00:56:08 01:00:22 89° 104° (ESE) 01:04:35 145.935-145.965
POPSAT HIP 1 01 Jun 00:56:12 01:00:26 88° 103° (ESE) 01:04:39 437.405
QB50P2 01 Jun 01:00:10 01:04:24 80° 286° (WNW) 01:08:36 145.880/145.840
ESTCUBE 1 01 Jun 01:00:53 01:03:45 16° 271° (W) 01:06:39 437.505/2401.250
VELOX 1 01 Jun 01:02:09 01:05:33 21° 268° (W) 01:08:59 145.980
POLYITAN 1 01 Jun 01:02:40 01:06:52 78° 287° (WNW) 01:11:05 437.675
JAS-2 01 Jun 01:03:01 01:09:17 29° 88° (E) 01:14:58 435.910
ISS 01 Jun 01:06:35 01:09:52 90° 72° (ENE) 01:13:08 145.825
BEESAT 01 Jun 01:07:26 01:10:49 20° 58° (ENE) 01:14:12 436.000
NANOSAT C BR1 01 Jun 01:11:53 01:16:04 67° 287° (WNW) 01:20:12 145.865
DANDE 01 Jun 01:13:30 01:19:06 20° 284° (WNW) 01:24:21 436.750
ANTELSAT 01 Jun 01:15:33 01:18:14 16° 301° (WNW) 01:20:56 437.575/2403.000
UKube-1 01 Jun 01:21:07 01:24:11 19° 268° (W) 01:27:17 .
Oscar 19 01 Jun 01:30:16 01:33:41 18° 89° (E) 01:37:05 437.125/150
SO-50 01 Jun 01:42:22 01:46:56 37° 322° (NW) 01:51:28 436.795
BUGSAT 1 01 Jun 01:46:29 01:50:29 61° 288° (WNW) 01:54:27 437.445
DUCHIFAT 1 01 Jun 01:48:31 01:52:14 31° 294° (WNW) 01:55:55 145.980
RS-15 01 Jun 01:50:29 02:02:49 87° 233° (SW) 02:15:10 29.354- 29.394
SWISSCUBE 01 Jun 02:14:13 02:18:57 75° 73° (ENE) 02:23:44 437.505
ITUPSAT 1 01 Jun 02:22:59 02:27:45 80° 73° (ENE) 02:32:34 437.325
KKS-1 01 Jun 02:24:03 02:26:31 15° 56° (ENE) 02:29:00 437.445
Cosmos 2504 01 Jun 02:28:08 02:33:30 18° 51° (NE) 02:39:00 435.465 / 435.565
TISAT 1 01 Jun 02:30:23 02:33:25 19° 268° (W) 02:36:28 437.305
Gurwin Techsat 1B 01 Jun 02:30:25 02:34:54 27° 93° (E) 02:39:20 435.225
YUBILEINY 01 Jun 02:31:26 02:39:52 48° 70° (ENE) 02:48:17 435.215
QB50P1 01 Jun 02:33:40 02:35:31 13° 303° (WNW) 02:37:23 145.935-145.965
POPSAT HIP 1 01 Jun 02:33:42 02:35:37 13° 303° (WNW) 02:37:30 437.405
QB50P2 01 Jun 02:38:08 02:39:29 11° 305° (NW) 02:40:51 145.880/145.840
POLYITAN 1 01 Jun 02:40:44 02:41:58 11° 305° (NW) 02:43:13 437.675
ISS 01 Jun 02:43:21 02:46:01 23° 217° (SW) 02:48:41 145.825
BEESAT 01 Jun 02:43:24 02:48:09 68° 258° (WSW) 02:52:55 436.000
STARS 01 Jun 02:47:05 02:49:10 13° 56° (NE) 02:51:17 437.465
JAS-2 01 Jun 02:47:33 02:54:58 67° 291° (WNW) 03:01:33 435.910
Oscar 19 01 Jun 03:08:25 03:13:36 74° 288° (WNW) 03:18:43 437.125/150
MOZHAYETS 4 01 Jun 03:12:29 03:16:24 29° 64° (ENE) 03:20:21
SO-50 01 Jun 03:25:47 03:28:45 16° 345° (NNW) 03:31:42 436.795
Cosmos 2491 01 Jun 03:33:52 03:42:04 46° 87° (E) 03:50:16 435.465 / 435.565
SWISSCUBE 01 Jun 03:54:26 03:57:19 16° 271° (W) 04:00:12 437.505
AO-7 01 Jun 03:56:13 04:03:16 29° 92° (E) 04:10:16 29.400- 29.500
KKS-1 01 Jun 03:58:01 04:02:29 85° 255° (WSW) 04:06:59 437.445
ITAMSAT 1 01 Jun 04:00:27 04:05:39 61° 102° (ESE) 04:10:49 435.822/435.867
ITUPSAT 1 01 Jun 04:03:33 04:06:12 15° 272° (W) 04:08:53 437.325
RS-15 01 Jun 04:03:54 04:13:47 30° 257° (WSW) 04:23:40 29.354- 29.394
Gurwin Techsat 1B 01 Jun 04:09:58 04:15:08 52° 292° (WNW) 04:20:16 435.225
Cosmos 2504 01 Jun 04:20:21 04:28:46 64° 75° (ENE) 04:37:32 435.465 / 435.565
STARS 01 Jun 04:20:29 04:24:54 88° 67° (ENE) 04:29:19 437.465
YUBILEINY 01 Jun 04:28:29 04:36:43 48° 272° (W) 04:44:58 435.215
JAS-2 01 Jun 04:33:46 04:38:35 19° 314° (NW) 04:43:08 435.910
